| time (UTC) | temp F | wind direction | speed knots | gust knots | rain 1hr in | rain 24hr in | rain mn in | humidity % | barometer mb |
| 20260510093413 | 64 | 270 | 0.0 | 0.0 | 0.00 | 0.00 | 0.00 | 73 | 1011.0 |
| 20260510092910 | 64 | 206 | 0.0 | 0.0 | 0.00 | 0.00 | 0.00 | 73 | 1010.9 |
| 20260510092407 | 64 | 351 | 0.0 | 0.0 | 0.00 | 0.00 | 0.00 | 72 | 1011.0 |
| 20260510091907 | 65 | 330 | 0.0 | 0.0 | 0.00 | 0.00 | 0.00 | 72 | 1010.8 |
| 20260510091404 | 65 | 33 | 0.0 | 0.0 | 0.00 | 0.00 | 0.00 | 71 | 1011.0 |
| 20260510090900 | 65 | 35 | 0.0 | 0.0 | 0.00 | 0.00 | 0.00 | 71 | 1011.0 |
| 20260510090357 | 65 | 28 | 0.0 | 0.0 | 0.00 | 0.00 | 0.00 | 71 | 1011.1 |
| 20260510085853 | 66 | 39 | 0.0 | 0.9 | 0.00 | 0.00 | 0.00 | 71 | 1011.2 |
| 20260510085348 | 66 | 192 | 0.0 | 0.0 | 0.00 | 0.00 | 0.00 | 71 | 1011.0 |
| 20260510084844 | 66 | 193 | 0.0 | 0.0 | 0.00 | 0.00 | 0.00 | 70 | 1011.1 |
| 20260510084341 | 66 | 35 | 0.0 | 0.0 | 0.00 | 0.00 | 0.00 | 70 | 1011.0 |
| 20260510083838 | 66 | 0 | 0.0 | 0.0 | 0.00 | 0.00 | 0.00 | 70 | 1011.1 |
| 20260510083334 | 67 | 336 | 0.0 | 0.0 | 0.00 | 0.00 | 0.00 | 70 | 1011.0 |
| 20260510082830 | 67 | 35 | 0.0 | 0.0 | 0.00 | 0.00 | 0.00 | 69 | 1011.0 |
| 20260510082327 | 68 | 82 | 0.0 | 0.0 | 0.00 | 0.00 | 0.00 | 68 | 1010.8 |
| 20260510081826 | 68 | 263 | 0.0 | 0.9 | 0.00 | 0.00 | 0.00 | 68 | 1010.9 |
| 20260510081322 | 68 | 299 | 0.0 | 0.9 | 0.00 | 0.00 | 0.00 | 67 | 1010.8 |
| 20260510080819 | 69 | 217 | 1.7 | 1.7 | 0.00 | 0.00 | 0.00 | 67 | 1010.9 |
| 20260510080313 | 69 | 237 | 0.9 | 0.9 | 0.00 | 0.00 | 0.00 | 66 | 1011.0 |
| 20260510075811 | 69 | 249 | 0.9 | 0.9 | 0.00 | 0.00 | 0.00 | 66 | 1010.9 |
| 20260510075308 | 69 | 264 | 0.9 | 0.9 | 0.00 | 0.00 | 0.00 | 65 | 1010.9 |
| 20260510074805 | 69 | 259 | 1.7 | 1.7 | 0.00 | 0.00 | 0.00 | 65 | 1011.2 |
| 20260510074302 | 69 | 257 | 0.9 | 0.9 | 0.00 | 0.00 | 0.00 | 64 | 1010.9 |
| 20260510073758 | 70 | 259 | 0.9 | 1.7 | 0.00 | 0.00 | 0.00 | 63 | 1011.1 |
| 20260510073254 | 70 | 254 | 1.7 | 1.7 | 0.00 | 0.00 | 0.00 | 63 | 1010.9 |
| 20260510072749 | 70 | 270 | 0.9 | 1.7 | 0.00 | 0.00 | 0.00 | 63 | 1011.0 |
| 20260510072246 | 70 | 232 | 2.6 | 3.5 | 0.00 | 0.00 | 0.00 | 63 | 1010.9 |
| 20260510071743 | 70 | 268 | 1.7 | 1.7 | 0.00 | 0.00 | 0.00 | 64 | 1011.2 |
| 20260510071239 | 70 | 273 | 0.0 | 0.9 | 0.00 | 0.00 | 0.00 | 63 | 1011.2 |
| 20260510070738 | 71 | 236 | 0.9 | 0.9 | 0.00 | 0.00 | 0.00 | 63 | 1011.1 |
| 20260510070235 | 71 | 262 | 0.9 | 0.9 | 0.00 | 0.00 | 0.00 | 62 | 1011.0 |
| 20260510065729 | 71 | 254 | 1.7 | 1.7 | 0.00 | 0.00 | 0.00 | 62 | 1010.9 |
| 20260510065226 | 71 | 257 | 1.7 | 1.7 | 0.00 | 0.00 | 0.00 | 62 | 1010.9 |
| 20260510064723 | 71 | 263 | 0.9 | 0.9 | 0.00 | 0.00 | 0.00 | 61 | 1010.9 |
| 20260510064221 | 71 | 240 | 1.7 | 1.7 | 0.00 | 0.00 | 0.00 | 61 | 1010.9 |
| 20260510063717 | 71 | 266 | 1.7 | 1.7 | 0.00 | 0.00 | 0.00 | 61 | 1010.9 |
| 20260510063213 | 71 | 226 | 0.9 | 0.9 | 0.00 | 0.00 | 0.00 | 62 | 1011.0 |
| 20260510062710 | 71 | 238 | 0.9 | 0.9 | 0.00 | 0.00 | 0.00 | 61 | 1010.8 |
| 20260510062206 | 71 | 237 | 0.0 | 0.0 | 0.00 | 0.00 | 0.00 | 61 | 1010.6 |
| 20260510061701 | 71 | 251 | 0.9 | 0.9 | 0.00 | 0.00 | 0.00 | 61 | 1010.8 |
| 20260510061159 | 71 | 250 | 1.7 | 1.7 | 0.00 | 0.00 | 0.00 | 60 | 1010.6 |
| 20260510060655 | 71 | 254 | 0.9 | 0.9 | 0.00 | 0.00 | 0.00 | 60 | 1010.9 |
| 20260510060152 | 71 | 235 | 0.9 | 1.7 | 0.00 | 0.00 | 0.00 | 60 | 1011.0 |
| 20260510055648 | 72 | 247 | 0.0 | 0.0 | 0.00 | 0.00 | 0.00 | 59 | 1011.0 |
| 20260510055146 | 72 | 240 | 0.9 | 1.7 | 0.00 | 0.00 | 0.00 | 59 | 1010.9 |
| 20260510054641 | 72 | 284 | 0.0 | 0.9 | 0.00 | 0.00 | 0.00 | 58 | 1010.9 |
| 20260510054137 | 72 | 263 | 0.9 | 1.7 | 0.00 | 0.00 | 0.00 | 58 | 1010.9 |
| 20260510053636 | 72 | 258 | 0.9 | 0.9 | 0.00 | 0.00 | 0.00 | 58 | 1010.8 |
| 20260510053133 | 72 | 245 | 0.9 | 1.7 | 0.00 | 0.00 | 0.00 | 58 | 1010.8 |
| 20260510052629 | 72 | 260 | 0.0 | 0.0 | 0.00 | 0.00 | 0.00 | 58 | 1011.0 |
| 20260510052126 | 72 | 265 | 0.9 | 0.9 | 0.00 | 0.00 | 0.00 | 57 | 1011.0 |
| 20260510051621 | 72 | 298 | 0.0 | 0.0 | 0.00 | 0.00 | 0.00 | 56 | 1010.9 |
| 20260510051118 | 73 | 291 | 0.0 | 0.0 | 0.00 | 0.00 | 0.00 | 56 | 1010.9 |
| 20260510050615 | 72 | 313 | 0.0 | 0.0 | 0.00 | 0.00 | 0.00 | 56 | 1010.8 |
| 20260510050113 | 72 | 41 | 0.0 | 0.0 | 0.00 | 0.00 | 0.00 | 56 | 1010.8 |
| 20260510045609 | 72 | 80 | 0.0 | 0.0 | 0.00 | 0.00 | 0.00 | 56 | 1010.8 |
| 20260510045105 | 73 | 80 | 0.0 | 0.0 | 0.00 | 0.00 | 0.00 | 55 | 1010.8 |
| 20260510044602 | 73 | 81 | 0.0 | 0.0 | 0.00 | 0.00 | 0.00 | 55 | 1010.4 |
| 20260510044059 | 73 | 124 | 0.0 | 0.0 | 0.00 | 0.00 | 0.00 | 54 | 1010.4 |
| 20260510043555 | 74 | 124 | 0.0 | 0.0 | 0.00 | 0.00 | 0.00 | 54 | 1010.4 |
| 20260510043051 | 74 | 37 | 0.0 | 0.0 | 0.00 | 0.00 | 0.00 | 53 | 1010.3 |
| 20260510042545 | 75 | 237 | 0.0 | 0.9 | 0.00 | 0.00 | 0.00 | 53 | 1010.2 |
| 20260510042040 | 75 | 243 | 0.9 | 0.9 | 0.00 | 0.00 | 0.00 | 52 | 1010.3 |
| 20260510041537 | 75 | 227 | 0.9 | 0.9 | 0.00 | 0.00 | 0.00 | 52 | 1010.2 |
| 20260510041034 | 75 | 242 | 0.0 | 0.9 | 0.00 | 0.00 | 0.00 | 52 | 1010.1 |
| 20260510040050 | 76 | 250 | 1.7 | 1.7 | 0.00 | 0.00 | 0.00 | 50 | 1010.2 |
| 20260510035546 | 76 | 250 | 1.7 | 1.7 | 0.00 | 0.00 | 0.00 | 50 | 1010.2 |
| 20260510035046 | 76 | 235 | 0.9 | 0.9 | 0.00 | 0.00 | 0.00 | 50 | 1010.1 |
| 20260510034544 | 77 | 246 | 0.0 | 0.0 | 0.00 | 0.00 | 0.00 | 49 | 1009.8 |
| 20260510034041 | 77 | 246 | 0.0 | 0.0 | 0.00 | 0.00 | 0.00 | 49 | 1009.8 |
| 20260510033537 | 77 | 243 | 0.0 | 0.0 | 0.00 | 0.00 | 0.00 | 48 | 1009.9 |
| 20260510033035 | 77 | 247 | 0.0 | 0.9 | 0.00 | 0.00 | 0.00 | 49 | 1009.9 |
| 20260510032531 | 78 | 247 | 1.7 | 1.7 | 0.00 | 0.00 | 0.00 | 49 | 1009.8 |
| 20260510032027 | 78 | 246 | 1.7 | 1.7 | 0.00 | 0.00 | 0.00 | 49 | 1009.5 |
| 20260510031522 | 78 | 277 | 0.0 | 0.9 | 0.00 | 0.00 | 0.00 | 49 | 1009.8 |
| 20260510031018 | 78 | 312 | 0.0 | 0.0 | 0.00 | 0.00 | 0.00 | 49 | 1009.7 |
| 20260510030514 | 79 | 343 | 0.0 | 0.9 | 0.00 | 0.00 | 0.00 | 49 | 1009.5 |
| 20260510030011 | 80 | 345 | 0.0 | 0.0 | 0.00 | 0.00 | 0.00 | 47 | 1009.5 |
| 20260510025508 | 80 | 345 | 0.0 | 0.0 | 0.00 | 0.00 | 0.00 | 47 | 1009.4 |
| 20260510025006 | 81 | 345 | 0.0 | 0.0 | 0.00 | 0.00 | 0.00 | 47 | 1009.5 |
| 20260510024503 | 82 | 356 | 0.0 | 0.0 | 0.00 | 0.00 | 0.00 | 46 | 1009.4 |
| 20260510023958 | 82 | 1 | 0.0 | 0.0 | 0.00 | 0.00 | 0.00 | 45 | 1009.6 |
| 20260510023454 | 83 | 355 | 0.0 | 0.0 | 0.00 | 0.00 | 0.00 | 44 | 1009.4 |
| 20260510022952 | 84 | 333 | 0.0 | 0.0 | 0.00 | 0.00 | 0.00 | 42 | 1009.4 |
| 20260510022451 | 84 | 259 | 0.0 | 0.0 | 0.00 | 0.00 | 0.00 | 40 | 1009.3 |
| 20260510021950 | 85 | 254 | 0.9 | 0.9 | 0.00 | 0.00 | 0.00 | 39 | 1009.4 |
| 20260510021448 | 85 | 255 | 0.9 | 0.9 | 0.00 | 0.00 | 0.00 | 39 | 1009.2 |
| 20260510020944 | 86 | 285 | 2.6 | 3.5 | 0.00 | 0.00 | 0.00 | 37 | 1009.1 |
| 20260510020439 | 86 | 293 | 2.6 | 4.3 | 0.00 | 0.00 | 0.00 | 37 | 1009.2 |
| 20260510015935 | 86 | 267 | 1.7 | 1.7 | 0.00 | 0.00 | 0.00 | 35 | 1009.2 |
| 20260510015431 | 87 | 231 | 2.6 | 3.5 | 0.00 | 0.00 | 0.00 | 35 | 1009.2 |
| 20260510014926 | 87 | 258 | 4.3 | 4.3 | 0.00 | 0.00 | 0.00 | 34 | 1009.4 |
| 20260510014424 | 87 | 269 | 3.5 | 4.3 | 0.00 | 0.00 | 0.00 | 34 | 1009.2 |
| 20260510013920 | 87 | 256 | 3.5 | 4.3 | 0.00 | 0.00 | 0.00 | 33 | 1009.3 |
| 20260510013415 | 88 | 252 | 0.9 | 1.7 | 0.00 | 0.00 | 0.00 | 33 | 1009.3 |
| 20260510012910 | 88 | 264 | 1.7 | 1.7 | 0.00 | 0.00 | 0.00 | 32 | 1009.1 |
| 20260510012406 | 88 | 264 | 4.3 | 5.2 | 0.00 | 0.00 | 0.00 | 31 | 1009.3 |
| 20260510011900 | 88 | 249 | 2.6 | 3.5 | 0.00 | 0.00 | 0.00 | 32 | 1009.3 |
| 20260510011356 | 89 | 242 | 1.7 | 1.7 | 0.00 | 0.00 | 0.00 | 29 | 1009.4 |
| 20260510010852 | 88 | 271 | 0.0 | 0.9 | 0.00 | 0.00 | 0.00 | 31 | 1009.5 |
| 20260510010350 | 89 | 267 | 2.6 | 3.5 | 0.00 | 0.00 | 0.00 | 32 | 1009.4 |
| 20260510005846 | 88 | 257 | 1.7 | 1.7 | 0.00 | 0.00 | 0.00 | 34 | 1009.3 |
| 20260510005343 | 88 | 249 | 4.3 | 6.1 | 0.00 | 0.00 | 0.00 | 33 | 1009.1 |
| 20260510004840 | 89 | 290 | 4.3 | 5.2 | 0.00 | 0.00 | 0.00 | 32 | 1009.6 |
| 20260510004337 | 89 | 277 | 0.9 | 0.9 | 0.00 | 0.00 | 0.00 | 35 | 1009.5 |
| 20260510003835 | 89 | 243 | 2.6 | 3.5 | 0.00 | 0.00 | 0.00 | 35 | 1009.4 |
| 20260510003332 | 89 | 16 | 0.9 | 0.9 | 0.00 | 0.00 | 0.00 | 33 | 1009.4 |
| 20260510002830 | 88 | 286 | 0.9 | 0.9 | 0.00 | 0.00 | 0.00 | 35 | 1009.7 |
| 20260510002328 | 89 | 262 | 4.3 | 5.2 | 0.00 | 0.00 | 0.00 | 34 | 1009.5 |
| 20260510001825 | 89 | 29 | 2.6 | 3.5 | 0.00 | 0.00 | 0.00 | 32 | 1009.6 |
| 20260510001323 | 89 | 249 | 1.7 | 1.7 | 0.00 | 0.00 | 0.00 | 33 | 1009.7 |
| 20260510000818 | 89 | 237 | 2.6 | 3.5 | 0.00 | 0.00 | 0.00 | 32 | 1009.5 |
| 20260510000318 | 89 | 242 | 1.7 | 1.7 | 0.00 | 0.00 | 0.00 | 32 | 1009.5 |
| 20260509235813 | 88 | 281 | 0.9 | 1.7 | 0.00 | 0.00 | 0.00 | 32 | 1009.6 |
| 20260509235309 | 89 | 261 | 4.3 | 4.3 | 0.00 | 0.00 | 0.00 | 30 | 1009.9 |
| 20260509234805 | 88 | 255 | 1.7 | 3.5 | 0.00 | 0.00 | 0.00 | 30 | 1009.8 |
| 20260509234302 | 89 | 349 | 0.0 | 0.9 | 0.00 | 0.00 | 0.00 | 31 | 1009.5 |
| 20260509233800 | 89 | 237 | 3.5 | 5.2 | 0.00 | 0.00 | 0.00 | 32 | 1009.7 |
| 20260509233258 | 88 | 281 | 1.7 | 1.7 | 0.00 | 0.00 | 0.00 | 34 | 1009.9 |
| 20260509232753 | 88 | 209 | 1.7 | 1.7 | 0.00 | 0.00 | 0.00 | 32 | 1009.8 |
| 20260509232251 | 90 | 275 | 3.5 | 4.3 | 0.00 | 0.00 | 0.00 | 31 | 1009.9 |
| 20260509231747 | 89 | 227 | 0.9 | 0.9 | 0.00 | 0.00 | 0.00 | 32 | 1009.9 |
| 20260509231244 | 89 | 254 | 0.9 | 0.9 | 0.00 | 0.00 | 0.00 | 32 | 1010.0 |
| 20260509230742 | 88 | 235 | 3.5 | 4.3 | 0.00 | 0.00 | 0.00 | 33 | 1010.0 |
| 20260509230239 | 88 | 248 | 3.5 | 4.3 | 0.00 | 0.00 | 0.00 | 33 | 1010.0 |
| 20260509225734 | 88 | 260 | 3.5 | 4.3 | 0.00 | 0.00 | 0.00 | 29 | 1010.2 |
| 20260509225230 | 88 | 290 | 1.7 | 1.7 | 0.00 | 0.00 | 0.00 | 29 | 1010.2 |
| 20260509224726 | 89 | 261 | 2.6 | 3.5 | 0.00 | 0.00 | 0.00 | 30 | 1010.2 |
| 20260509224223 | 89 | 247 | 1.7 | 1.7 | 0.00 | 0.00 | 0.00 | 32 | 1010.2 |
| 20260509223720 | 87 | 314 | 2.6 | 3.5 | 0.00 | 0.00 | 0.00 | 33 | 1010.4 |
| 20260509223217 | 88 | 271 | 2.6 | 3.5 | 0.00 | 0.00 | 0.00 | 33 | 1010.6 |
| 20260509222714 | 87 | 263 | 1.7 | 1.7 | 0.00 | 0.00 | 0.00 | 34 | 1010.6 |
| 20260509222209 | 87 | 255 | 1.7 | 1.7 | 0.00 | 0.00 | 0.00 | 34 | 1010.8 |
| 20260509221705 | 88 | 237 | 2.6 | 4.3 | 0.00 | 0.00 | 0.00 | 36 | 1010.8 |
| 20260509221201 | 87 | 247 | 2.6 | 4.3 | 0.00 | 0.00 | 0.00 | 34 | 1010.9 |
| 20260509220657 | 86 | 271 | 1.7 | 1.7 | 0.00 | 0.00 | 0.00 | 36 | 1010.9 |
| 20260509220154 | 86 | 269 | 2.6 | 3.5 | 0.00 | 0.00 | 0.00 | 37 | 1011.0 |
| 20260509215650 | 86 | 257 | 3.5 | 4.3 | 0.00 | 0.00 | 0.00 | 36 | 1011.2 |
| 20260509215147 | 87 | 75 | 2.6 | 4.3 | 0.00 | 0.00 | 0.00 | 36 | 1011.2 |
| 20260509214643 | 86 | 267 | 0.9 | 0.9 | 0.00 | 0.00 | 0.00 | 37 | 1011.2 |
| 20260509214140 | 87 | 242 | 0.9 | 1.7 | 0.00 | 0.00 | 0.00 | 36 | 1011.3 |
| 20260509213637 | 86 | 47 | 0.9 | 0.9 | 0.00 | 0.00 | 0.00 | 37 | 1011.1 |
| 20260509213133 | 86 | 253 | 3.5 | 4.3 | 0.00 | 0.00 | 0.00 | 37 | 1011.3 |
| 20260509212631 | 85 | 328 | 2.6 | 3.5 | 0.00 | 0.00 | 0.00 | 40 | 1011.6 |
| 20260509212127 | 84 | 274 | 4.3 | 5.2 | 0.00 | 0.00 | 0.00 | 40 | 1011.5 |
| 20260509211623 | 84 | 234 | 2.6 | 3.5 | 0.00 | 0.00 | 0.00 | 42 | 1011.5 |
| 20260509211120 | 84 | 223 | 3.5 | 4.3 | 0.00 | 0.00 | 0.00 | 40 | 1011.6 |
| 20260509210617 | 85 | 250 | 1.7 | 1.7 | 0.00 | 0.00 | 0.00 | 41 | 1011.8 |
| 20260509210114 | 84 | 215 | 0.0 | 0.9 | 0.00 | 0.00 | 0.00 | 42 | 1011.8 |
| 20260509205608 | 83 | 261 | 2.6 | 3.5 | 0.00 | 0.00 | 0.00 | 42 | 1011.8 |
| 20260509205103 | 83 | 228 | 1.7 | 3.5 | 0.00 | 0.00 | 0.00 | 42 | 1011.8 |
| 20260509204600 | 84 | 309 | 0.9 | 0.9 | 0.00 | 0.00 | 0.00 | 41 | 1012.0 |
| 20260509204056 | 84 | 284 | 1.7 | 3.5 | 0.00 | 0.00 | 0.00 | 40 | 1011.8 |
| 20260509203552 | 83 | 248 | 0.9 | 1.7 | 0.00 | 0.00 | 0.00 | 42 | 1011.8 |
| 20260509203051 | 84 | 259 | 2.6 | 3.5 | 0.00 | 0.00 | 0.00 | 40 | 1012.0 |
| 20260509202545 | 83 | 15 | 0.9 | 0.9 | 0.00 | 0.00 | 0.00 | 42 | 1012.1 |
| 20260509202041 | 83 | 303 | 1.7 | 1.7 | 0.00 | 0.00 | 0.00 | 42 | 1012.2 |
| 20260509201536 | 83 | 277 | 3.5 | 4.3 | 0.00 | 0.00 | 0.00 | 41 | 1012.1 |
| 20260509201034 | 83 | 252 | 4.3 | 4.3 | 0.00 | 0.00 | 0.00 | 41 | 1012.2 |
| 20260509200527 | 82 | 237 | 2.6 | 3.5 | 0.00 | 0.00 | 0.00 | 42 | 1012.1 |
| 20260509200024 | 82 | 216 | 0.0 | 0.9 | 0.00 | 0.00 | 0.00 | 43 | 1012.2 |
| 20260509195520 | 81 | 275 | 0.9 | 0.9 | 0.00 | 0.00 | 0.00 | 43 | 1012.3 |
| 20260509195020 | 82 | 2 | 0.9 | 1.7 | 0.00 | 0.00 | 0.00 | 43 | 1012.3 |
| 20260509194515 | 80 | 255 | 1.7 | 1.7 | 0.00 | 0.00 | 0.00 | 45 | 1012.4 |
| 20260509194013 | 81 | 235 | 1.7 | 3.5 | 0.00 | 0.00 | 0.00 | 44 | 1012.4 |
| 20260509193513 | 82 | 223 | 1.7 | 1.7 | 0.00 | 0.00 | 0.00 | 44 | 1012.6 |
| 20260509193010 | 81 | 76 | 0.0 | 0.0 | 0.00 | 0.00 | 0.00 | 43 | 1012.6 |
| 20260509192506 | 81 | 247 | 1.7 | 1.7 | 0.00 | 0.00 | 0.00 | 42 | 1012.7 |
| 20260509192001 | 80 | 47 | 1.7 | 1.7 | 0.00 | 0.00 | 0.00 | 43 | 1012.6 |
| 20260509191456 | 80 | 336 | 0.9 | 0.9 | 0.00 | 0.00 | 0.00 | 44 | 1012.7 |
| 20260509190952 | 79 | 230 | 0.9 | 0.9 | 0.00 | 0.00 | 0.00 | 45 | 1012.8 |
| 20260509190449 | 80 | 253 | 2.6 | 4.3 | 0.00 | 0.00 | 0.00 | 45 | 1012.9 |
| 20260509185947 | 80 | 266 | 1.7 | 3.5 | 0.00 | 0.00 | 0.00 | 45 | 1013.0 |
| 20260509185444 | 78 | 12 | 0.9 | 0.9 | 0.00 | 0.00 | 0.00 | 47 | 1012.9 |
| 20260509184940 | 78 | 306 | 0.0 | 0.9 | 0.00 | 0.00 | 0.00 | 46 | 1013.1 |
| 20260509184439 | 77 | 298 | 0.9 | 3.5 | 0.00 | 0.00 | 0.00 | 47 | 1013.3 |
| 20260509183935 | 77 | 246 | 0.9 | 0.9 | 0.00 | 0.00 | 0.00 | 49 | 1013.1 |
| 20260509183429 | 77 | 340 | 1.7 | 1.7 | 0.00 | 0.00 | 0.00 | 47 | 1013.1 |
| 20260509182926 | 76 | 214 | 0.9 | 0.9 | 0.00 | 0.00 | 0.00 | 48 | 1013.3 |
| 20260509182422 | 77 | 342 | 0.9 | 1.7 | 0.00 | 0.00 | 0.00 | 48 | 1013.3 |
| 20260509181920 | 77 | 0 | 0.9 | 0.9 | 0.00 | 0.00 | 0.00 | 47 | 1013.4 |
| 20260509181418 | 75 | 260 | 1.7 | 3.5 | 0.00 | 0.00 | 0.00 | 49 | 1013.3 |
| 20260509180914 | 75 | 222 | 1.7 | 1.7 | 0.00 | 0.00 | 0.00 | 49 | 1013.2 |
| 20260509180409 | 75 | 261 | 1.7 | 1.7 | 0.00 | 0.00 | 0.00 | 49 | 1013.2 |
| 20260509175907 | 75 | 284 | 0.9 | 0.9 | 0.00 | 0.00 | 0.00 | 49 | 1013.5 |
| 20260509175402 | 76 | 305 | 2.6 | 4.3 | 0.00 | 0.00 | 0.00 | 49 | 1013.2 |
| 20260509174854 | 75 | 60 | 0.9 | 1.7 | 0.00 | 0.00 | 0.00 | 49 | 1013.3 |
| 20260509174350 | 75 | 344 | 0.9 | 0.9 | 0.00 | 0.00 | 0.00 | 50 | 1013.4 |
| 20260509173846 | 75 | 262 | 2.6 | 4.3 | 0.00 | 0.00 | 0.00 | 49 | 1013.5 |
| 20260509173341 | 74 | 263 | 1.7 | 1.7 | 0.00 | 0.00 | 0.00 | 51 | 1013.4 |
| 20260509172837 | 74 | 252 | 1.7 | 1.7 | 0.00 | 0.00 | 0.00 | 51 | 1013.6 |
| 20260509172334 | 73 | 331 | 0.0 | 0.0 | 0.00 | 0.00 | 0.00 | 50 | 1013.5 |
| 20260509171830 | 74 | 257 | 0.9 | 0.9 | 0.00 | 0.00 | 0.00 | 51 | 1013.4 |
| 20260509171326 | 73 | 256 | 1.7 | 3.5 | 0.00 | 0.00 | 0.00 | 52 | 1013.6 |
| 20260509170823 | 72 | 274 | 3.5 | 4.3 | 0.00 | 0.00 | 0.00 | 55 | 1013.6 |
| 20260509170319 | 72 | 241 | 0.9 | 0.9 | 0.00 | 0.00 | 0.00 | 54 | 1013.5 |
| 20260509165818 | 71 | 256 | 3.5 | 4.3 | 0.00 | 0.00 | 0.00 | 54 | 1013.7 |
| 20260509165313 | 72 | 257 | 0.9 | 1.7 | 0.00 | 0.00 | 0.00 | 56 | 1013.8 |
| 20260509164809 | 72 | 260 | 0.9 | 0.9 | 0.00 | 0.00 | 0.00 | 56 | 1013.6 |
| 20260509164306 | 71 | 273 | 0.0 | 0.9 | 0.00 | 0.00 | 0.00 | 56 | 1013.8 |
| 20260509163802 | 70 | 221 | 1.7 | 1.7 | 0.00 | 0.00 | 0.00 | 57 | 1013.8 |
| 20260509163258 | 70 | 266 | 3.5 | 4.3 | 0.00 | 0.00 | 0.00 | 57 | 1013.7 |
| 20260509162758 | 69 | 245 | 2.6 | 4.3 | 0.00 | 0.00 | 0.00 | 59 | 1013.8 |
| 20260509162251 | 69 | 256 | 1.7 | 1.7 | 0.00 | 0.00 | 0.00 | 59 | 1013.6 |
| 20260509161747 | 69 | 231 | 0.9 | 1.7 | 0.00 | 0.00 | 0.00 | 61 | 1013.5 |
| 20260509161243 | 69 | 262 | 1.7 | 3.5 | 0.00 | 0.00 | 0.00 | 62 | 1013.6 |
| 20260509160739 | 68 | 245 | 1.7 | 1.7 | 0.00 | 0.00 | 0.00 | 64 | 1013.8 |
| 20260509160236 | 66 | 267 | 0.9 | 1.7 | 0.00 | 0.00 | 0.00 | 67 | 1013.7 |
| 20260509155731 | 65 | 307 | 0.0 | 0.0 | 0.00 | 0.00 | 0.00 | 68 | 1013.8 |
| 20260509155228 | 65 | 261 | 0.9 | 0.9 | 0.00 | 0.00 | 0.00 | 68 | 1013.7 |
| 20260509154724 | 64 | 305 | 1.7 | 3.5 | 0.00 | 0.00 | 0.00 | 69 | 1014.0 |
| 20260509154221 | 64 | 263 | 1.7 | 1.7 | 0.00 | 0.00 | 0.00 | 70 | 1013.7 |
| 20260509153718 | 63 | 264 | 1.7 | 1.7 | 0.00 | 0.00 | 0.00 | 71 | 1013.7 |
| 20260509153214 | 63 | 269 | 2.6 | 3.5 | 0.00 | 0.00 | 0.00 | 72 | 1013.9 |
| 20260509152710 | 62 | 266 | 0.9 | 0.9 | 0.00 | 0.00 | 0.00 | 72 | 1013.7 |
| 20260509152207 | 62 | 291 | 0.9 | 0.9 | 0.00 | 0.00 | 0.00 | 73 | 1013.7 |
| 20260509151704 | 62 | 256 | 1.7 | 1.7 | 0.00 | 0.00 | 0.00 | 73 | 1013.6 |
| 20260509151201 | 61 | 262 | 1.7 | 1.7 | 0.00 | 0.00 | 0.00 | 73 | 1013.7 |
| 20260509150659 | 61 | 279 | 0.9 | 0.9 | 0.00 | 0.00 | 0.00 | 74 | 1013.4 |
| 20260509150157 | 61 | 282 | 1.7 | 1.7 | 0.00 | 0.00 | 0.00 | 74 | 1013.5 |
| 20260509145653 | 61 | 272 | 1.7 | 1.7 | 0.00 | 0.00 | 0.00 | 74 | 1013.5 |
| 20260509145148 | 60 | 278 | 0.0 | 0.9 | 0.00 | 0.00 | 0.00 | 74 | 1013.6 |
| 20260509144645 | 60 | 343 | 0.0 | 0.0 | 0.00 | 0.00 | 0.00 | 75 | 1013.8 |
| 20260509144142 | 61 | 264 | 4.3 | 5.2 | 0.00 | 0.00 | 0.00 | 74 | 1013.8 |
| 20260509143639 | 61 | 41 | 0.0 | 0.0 | 0.00 | 0.00 | 0.00 | 72 | 1013.7 |
| 20260509143137 | 60 | 60 | 0.0 | 0.0 | 0.00 | 0.00 | 0.00 | 73 | 1013.7 |
| 20260509142632 | 60 | 41 | 0.0 | 0.9 | 0.00 | 0.00 | 0.00 | 75 | 1013.7 |
| 20260509142129 | 59 | 359 | 0.0 | 0.9 | 0.00 | 0.00 | 0.00 | 76 | 1013.6 |
| 20260509141625 | 59 | 339 | 0.0 | 0.9 | 0.00 | 0.00 | 0.00 | 76 | 1013.7 |
| 20260509141121 | 59 | 35 | 0.0 | 0.0 | 0.00 | 0.00 | 0.00 | 75 | 1013.6 |
| 20260509140618 | 58 | 37 | 0.0 | 0.9 | 0.00 | 0.00 | 0.00 | 76 | 1013.6 |
| 20260509140116 | 58 | 31 | 0.0 | 0.0 | 0.00 | 0.00 | 0.00 | 77 | 1013.4 |
| 20260509135613 | 57 | 30 | 0.0 | 0.0 | 0.00 | 0.00 | 0.00 | 80 | 1013.4 |
| 20260509135111 | 56 | 30 | 0.0 | 0.0 | 0.00 | 0.00 | 0.00 | 81 | 1013.2 |
| 20260509134607 | 56 | 31 | 0.0 | 0.0 | 0.00 | 0.00 | 0.00 | 81 | 1013.3 |
| 20260509134105 | 56 | 31 | 0.0 | 0.0 | 0.00 | 0.00 | 0.00 | 82 | 1013.1 |
| 20260509133602 | 55 | 31 | 0.0 | 0.0 | 0.00 | 0.00 | 0.00 | 82 | 1013.1 |
| 20260509133059 | 55 | 31 | 0.0 | 0.0 | 0.00 | 0.00 | 0.00 | 82 | 1013.1 |
| 20260509132557 | 56 | 12 | 0.0 | 0.0 | 0.00 | 0.00 | 0.00 | 83 | 1013.0 |
| 20260509132056 | 56 | 14 | 0.0 | 0.0 | 0.00 | 0.00 | 0.00 | 82 | 1013.1 |
| 20260509131551 | 56 | 2 | 0.0 | 0.0 | 0.00 | 0.00 | 0.00 | 82 | 1013.0 |
| 20260509131048 | 56 | 350 | 0.0 | 0.0 | 0.00 | 0.00 | 0.00 | 82 | 1012.8 |
| 20260509130544 | 56 | 352 | 0.0 | 0.0 | 0.00 | 0.00 | 0.00 | 82 | 1012.7 |
| 20260509130041 | 56 | 282 | 0.0 | 0.0 | 0.00 | 0.00 | 0.00 | 81 | 1012.7 |
| 20260509125537 | 56 | 282 | 0.0 | 0.0 | 0.00 | 0.00 | 0.00 | 81 | 1012.7 |
| 20260509125034 | 56 | 279 | 0.9 | 0.9 | 0.00 | 0.00 | 0.00 | 81 | 1012.7 |
| 20260509124530 | 56 | 279 | 0.0 | 0.0 | 0.00 | 0.00 | 0.00 | 82 | 1012.7 |
| 20260509124028 | 56 | 257 | 0.0 | 0.0 | 0.00 | 0.00 | 0.00 | 84 | 1012.7 |
| 20260509123526 | 56 | 273 | 0.0 | 0.9 | 0.00 | 0.00 | 0.00 | 85 | 1012.7 |
| 20260509123022 | 56 | 307 | 0.0 | 0.0 | 0.00 | 0.00 | 0.00 | 85 | 1012.4 |
| 20260509122518 | 56 | 331 | 0.0 | 0.0 | 0.00 | 0.00 | 0.00 | 85 | 1012.4 |
| 20260509122015 | 56 | 331 | 0.0 | 0.0 | 0.00 | 0.00 | 0.00 | 85 | 1012.9 |
| 20260509121512 | 56 | 331 | 0.0 | 0.0 | 0.00 | 0.00 | 0.00 | 85 | 1012.7 |
| 20260509121010 | 56 | 331 | 0.0 | 0.0 | 0.00 | 0.00 | 0.00 | 85 | 1012.6 |
| 20260509120508 | 56 | 331 | 0.0 | 0.0 | 0.00 | 0.00 | 0.00 | 85 | 1012.8 |
| 20260509120006 | 56 | 331 | 0.0 | 0.0 | 0.00 | 0.00 | 0.00 | 84 | 1012.7 |
| 20260509115502 | 56 | 331 | 0.0 | 0.0 | 0.00 | 0.00 | 0.00 | 84 | 1012.6 |
| 20260509115000 | 56 | 331 | 0.0 | 0.0 | 0.00 | 0.00 | 0.00 | 84 | 1012.6 |
| 20260509114458 | 56 | 331 | 0.0 | 0.0 | 0.00 | 0.00 | 0.00 | 84 | 1012.7 |
| 20260509113957 | 57 | 331 | 0.0 | 0.0 | 0.00 | 0.00 | 0.00 | 83 | 1012.6 |
| 20260509113454 | 57 | 334 | 0.0 | 0.0 | 0.00 | 0.00 | 0.00 | 83 | 1012.6 |
| 20260509112951 | 57 | 334 | 0.0 | 0.0 | 0.00 | 0.00 | 0.00 | 83 | 1012.8 |
| 20260509112448 | 57 | 333 | 0.0 | 0.0 | 0.00 | 0.00 | 0.00 | 83 | 1012.6 |
| 20260509111944 | 57 | 333 | 0.0 | 0.0 | 0.00 | 0.00 | 0.00 | 82 | 1012.8 |
| 20260509111442 | 56 | 334 | 0.0 | 0.0 | 0.00 | 0.00 | 0.00 | 82 | 1012.8 |
| 20260509110940 | 56 | 333 | 0.0 | 0.0 | 0.00 | 0.00 | 0.00 | 82 | 1012.6 |
| 20260509110435 | 57 | 332 | 0.0 | 0.0 | 0.00 | 0.00 | 0.00 | 82 | 1012.8 |
| 20260509105933 | 57 | 332 | 0.0 | 0.0 | 0.00 | 0.00 | 0.00 | 82 | 1012.7 |
| 20260509105432 | 57 | 332 | 0.0 | 0.0 | 0.00 | 0.00 | 0.00 | 81 | 1012.9 |
| 20260509104928 | 57 | 331 | 0.0 | 0.0 | 0.00 | 0.00 | 0.00 | 81 | 1012.6 |
| 20260509104425 | 58 | 330 | 0.0 | 0.0 | 0.00 | 0.00 | 0.00 | 81 | 1012.7 |
| 20260509103922 | 58 | 34 | 0.0 | 0.0 | 0.00 | 0.00 | 0.00 | 81 | 1012.7 |
| 20260509103420 | 58 | 34 | 0.0 | 0.0 | 0.00 | 0.00 | 0.00 | 81 | 1012.8 |
| 20260509102918 | 58 | 34 | 0.0 | 0.0 | 0.00 | 0.00 | 0.00 | 81 | 1012.9 |
| 20260509102415 | 58 | 34 | 0.0 | 0.0 | 0.00 | 0.00 | 0.00 | 80 | 1012.8 |
| 20260509101911 | 58 | 34 | 0.0 | 0.0 | 0.00 | 0.00 | 0.00 | 79 | 1013.0 |
| 20260509101407 | 59 | 34 | 0.0 | 0.0 | 0.00 | 0.00 | 0.00 | 79 | 1012.7 |
| 20260509100905 | 59 | 34 | 0.0 | 0.0 | 0.00 | 0.00 | 0.00 | 79 | 1012.9 |
| 20260509100402 | 59 | 34 | 0.0 | 0.0 | 0.00 | 0.00 | 0.00 | 78 | 1012.9 |
| 20260509095858 | 60 | 25 | 0.0 | 0.0 | 0.00 | 0.00 | 0.00 | 77 | 1012.6 |
| 20260509095356 | 60 | 279 | 0.0 | 0.0 | 0.00 | 0.00 | 0.00 | 77 | 1012.8 |
| 20260509094853 | 61 | 250 | 0.0 | 0.0 | 0.00 | 0.00 | 0.00 | 76 | 1012.9 |
| 20260509094349 | 61 | 282 | 0.0 | 0.9 | 0.00 | 0.00 | 0.00 | 76 | 1012.7 |
| 20260509093847 | 61 | 261 | 1.7 | 1.7 | 0.00 | 0.00 | 0.00 | 76 | 1013.0 |